Tracking 31027 objects as of 19-Jul-2025
HD Live streaming from Space Station
objects crossing your sky now

SITRO-AIS-8

Track SITRO-AIS-8 now!
10-day predictions
SITRO-AIS-8 is classified as:


NORAD ID: 57193
Int'l Code: 2023-091AD
Perigee: 498.7 km
Apogee: 517.1 km
Inclination: 97.6 °
Period: 94.6 minutes
Semi major axis: 6878 km
RCS: Unknown
Launch date: June 27, 2023
Source: (TBD)
Launch site: VOSTOCHNY COSMODROME (VOSTO)

Uplink (MHz):
Downlink (MHz): 401.230
Beacon (MHz):
Mode: 2k4 GMSK_USP
Call sign: SC2210
Status: Active

Your satellite tracking list
TITAN 3C TRANSTAGE DEB
Track 1 satellite(s)




NASA's NSSDC Master Catalog

Two Line Element Set (TLE):
1 57193U 23091AD  25199.84722557  .00008679  00000-0  38573-3 0  9995
2 57193  97.5556 257.4630 0013363 185.5171 174.5919 15.21689258113586
Source of the keplerian elements: AFSPC